Weather History for Exeter, United Kingdom

Change the Weather History Date:

Wednesday, October 9, 2013

  Actual Average Record
Temperature  
Mean Temperature 52 °F -  
Max Temperature 59 °F 56 °F 68 °F (2011)
Min Temperature 46 °F 43 °F 37 °F (1998)
Degree Days  
Heating Degree Days 12    
Growing Degree Days 2 (Base 50)    
Moisture  
Dew Point 50 °F    
Average Humidity 85    
Maximum Humidity 100    
Minimum Humidity 62    
Precipitation  
Precipitation 0.00 in - - ()
Sea Level Pressure  
Sea Level Pressure 30.17 in    
Wind  
Wind Speed 6 mph ()    
Max Wind Speed 16 mph    
Max Gust Speed -    
Visibility 5.9 miles    
Events Fog    
Averages and records for this station are not official NWS values.
T = Trace of Precipitation, MM = Missing Value Source: Averaged Metar Reports

Daily Weather History Graph

Daily Weather History Graph

Search for Another Location

Airport:

Trip Planner

Search our weather history database for the weather conditions in past years. The results will help you decide how hot, cold, wet, or windy it might be!

Date:

Astronomy

Oct. 09, 2013 Rise Set
Actual Time 7:26 AM BST 6:33 PM BST
Civil Twilight 6:53 AM BST 7:06 PM BST
Nautical Twilight 6:15 AM BST 7:44 PM BST
Astronomical Twilight 5:37 AM BST 8:22 PM BST
Moon 12:33 PM BST (10/9) 9:28 PM BST (10/9)
Length of Visible Light 12h 12m
Length of Day
11h 07m
Waxing Crescent, 23% of the Moon is Illuminated
Oct 9
Waxing Crescent
Oct 12
First Quarter
Oct 19
Full
Oct 27
Last Quarter
Nov 3
New

Hourly Weather History & Observations

Time (BST) Temp. Windchill Dew Point Humidity Pressure Visibility Wind Dir Wind Speed Gust Speed Precip Events Conditions
12:20 AM 53.6 °F - 53.6 °F 100% 30.30 in 6.2 mi Variable 3.5 mph - N/A   Partly Cloudy
12:50 AM 53 °F - 52 °F 95%  in - Calm Calm - -  
12:50 AM 53.6 °F - 53.6 °F 100% 30.27 in 0.4 mi WNW 4.6 mph - N/A Fog Fog
1:20 AM 53.6 °F - 53.6 °F 100% 30.27 in 0.9 mi Variable 3.5 mph - N/A   Scattered Clouds
5:50 AM 53.6 °F - 53.6 °F 100% 30.24 in 6.2 mi East 3.5 mph - N/A   Light Drizzle
6:20 AM 53.6 °F - 53.6 °F 100% 30.24 in 6.2 mi Variable 1.2 mph - N/A   Mostly Cloudy
6:50 AM 53 °F - 53 °F 98%  in - Calm Calm - -  
6:50 AM 53.6 °F - 53.6 °F 100% 30.21 in 6.2 mi SSE 2.3 mph - N/A   Mostly Cloudy
7:20 AM 53.6 °F - 53.6 °F 100% 30.21 in 6.2 mi Calm Calm - N/A Fog Shallow Fog
7:50 AM 51.8 °F - 51.8 °F 100% 30.21 in 6.2 mi Calm Calm - N/A Fog Shallow Fog
8:20 AM 53.6 °F - 51.8 °F 94% 30.21 in 6.2 mi Variable 2.3 mph - N/A   Mostly Cloudy
8:50 AM 55.4 °F - 55.4 °F 100% 30.24 in 6.2 mi NW 4.6 mph - N/A   Mostly Cloudy
9:20 AM 55.4 °F - 55.4 °F 100% 30.24 in 6.2 mi NW 5.8 mph - N/A   Mostly Cloudy
9:50 AM 56 °F - 56 °F 98%  in - Calm Calm - -  
9:50 AM 55.4 °F - 55.4 °F 100% 30.21 in 6.2 mi WNW 6.9 mph - N/A   Scattered Clouds
10:20 AM 57.2 °F - 55.4 °F 94% 30.21 in 6.2 mi West 5.8 mph - N/A   Scattered Clouds
10:50 AM 57.2 °F - 53.6 °F 88% 30.21 in 6.2 mi WNW 9.2 mph - N/A   Scattered Clouds
11:20 AM 57.2 °F - 53.6 °F 88% 30.21 in 6.2 mi WNW 10.4 mph - N/A   Scattered Clouds
11:50 AM 57.2 °F - 51.8 °F 82% 30.21 in 6.2 mi NW 10.4 mph - N/A   Mostly Cloudy
12:20 PM 57.2 °F - 51.8 °F 82% 30.18 in 6.2 mi WNW 11.5 mph - N/A   Mostly Cloudy
12:50 PM 58 °F - 52 °F 73%  in - Calm Calm - -  
12:50 PM 57.2 °F - 51.8 °F 82% 30.18 in 6.2 mi WNW 11.5 mph - N/A   Mostly Cloudy
1:20 PM 59.0 °F - 51.8 °F 77% 30.18 in 6.2 mi NW 13.8 mph - N/A   Mostly Cloudy
1:50 PM 59.0 °F - 50.0 °F 72% 30.15 in 6.2 mi WNW 12.7 mph - N/A   Mostly Cloudy
2:20 PM 57.2 °F - 48.2 °F 72% 30.15 in 6.2 mi WNW 12.7 mph - N/A   Mostly Cloudy
2:50 PM 57.2 °F - 50.0 °F 77% 30.15 in 6.2 mi WNW 10.4 mph - N/A   Scattered Clouds
3:20 PM 57.2 °F - 50.0 °F 77% 30.12 in 6.2 mi NW 15.0 mph - N/A   Scattered Clouds
3:50 PM 56 °F - 47 °F 62%  in - Calm Calm - -  
3:50 PM 57.2 °F - 48.2 °F 72% 30.12 in 6.2 mi NW 12.7 mph - N/A   Scattered Clouds
4:20 PM 55.4 °F - 48.2 °F 77% 30.12 in 6.2 mi NW 16.1 mph - N/A   Scattered Clouds
4:50 PM 55.4 °F - 48.2 °F 77% 30.12 in 6.2 mi NW 16.1 mph - N/A   Scattered Clouds
5:20 PM 55.4 °F - 48.2 °F 77% 30.09 in 6.2 mi NW 15.0 mph - N/A   Partly Cloudy
5:50 PM 55.4 °F - 48.2 °F 77% 30.09 in 6.2 mi WNW 11.5 mph - N/A   Partly Cloudy
6:20 PM 55.4 °F - 48.2 °F 77% 30.09 in 6.2 mi NW 9.2 mph - N/A   Scattered Clouds
6:50 PM 54 °F - 47 °F 72%  in - Calm Calm - -  
6:50 PM 53.6 °F - 48.2 °F 82% 30.09 in 6.2 mi NNW 13.8 mph - N/A   Scattered Clouds
7:20 PM 53.6 °F - 48.2 °F 82% 30.12 in 6.2 mi NW 9.2 mph - N/A   Partly Cloudy
7:50 PM 51.8 °F - 46.4 °F 82% 30.12 in 6.2 mi NW 8.1 mph - N/A   Partly Cloudy
8:20 PM 50.0 °F - 46.4 °F 87% 30.12 in 6.2 mi NW 8.1 mph - N/A   Partly Cloudy
8:50 PM 50.0 °F - 46.4 °F 87% 30.12 in 6.2 mi NW 10.4 mph - N/A   Partly Cloudy
9:20 PM 50.0 °F - 44.6 °F 82% 30.12 in 6.2 mi NW 6.9 mph - N/A   Partly Cloudy
9:50 PM 50 °F - 42 °F 65%  in - Calm Calm - -  
9:50 PM 50.0 °F - 42.8 °F 76% 30.12 in 6.2 mi NNW 6.9 mph - N/A   Partly Cloudy
10:20 PM 48.2 °F - 42.8 °F 82% 30.12 in 6.2 mi NNW 9.2 mph - N/A   Partly Cloudy
10:50 PM 48.2 °F - 41.0 °F 76% 30.12 in 6.2 mi NNW 11.5 mph - N/A   Partly Cloudy
11:20 PM 46.4 °F 41.5 °F 41.0 °F 81% 30.15 in - NNW 10.4 mph - N/A   Clear
11:50 PM 46.4 °F 42.9 °F 39.2 °F 76% 30.12 in - NW 6.9 mph - N/A   Clear